Aérodrome :
LOGIN :

S'inscrire | Disclaimer

   EN    FR    IT 

 










Légende :    VFR   VFR Marginal   IFR   IFR Intensif   IFR Très Intensif
Visi : 
Plafond : 
>= 8 km
>= 3000ft
5 à 8 km
1000 à 3000 ft
1500m à 5 km
500 à 1000 ft
800 à 1500m
200 à 500 ft
< 800m
< 200 ft
Symboles :   Orages  Brouillard  Fortes neiges  Fortes précipitations  Vent > 20 kt
SIGMETs :   Divers  Orages  Givrage  Turbulence  Onde Orograph.  Cendres Volcan.






- Altitude de l'aérodrome : 443 ft
- Code IATA : GNA


UMMG - Grodno

DERNIER METAR :
  • 100700Z 03002MPS CAVOK 24/15 Q1019 R35/CLRD// NOSIG

METARs EXPIRÉS :
  • 100600Z 03001MPS CAVOK 22/16 Q1019 R35/CLRD// NOSIG
  • 100530Z 00000MPS CAVOK 19/15 Q1019 R35/CLRD// NOSIG
  • 100500Z VRB01MPS CAVOK 19/15 Q1018 NOSIG

TAF TAF UMMG
Valide du 10 à 05h jusqu'au 10 à 15h UTC


100433Z 1005/1015 VRB02MPS 9999 SCT030 TX28/1013Z TN17/1005Z
TEMPO 1009/1015 03005MPS 6000 -SHRA SCT016CB



MET'MAP, la Météo Aéronautique d'un coup d'oeil ! - Copyright ORBIFLY Décembre 2007 - Disclaimer

ORBIFLY MET'MAP TEAM :

Programmation & Développement : Alexandra Zaïnal
Sur une idée originale de : Baudouin d'Aumeries
Assistance à la programmation : Marc-Olivier Méhu
Soutien technique & logistique : Manuel Goepfert

Contact : metmap@orbifly.com




SOURCES & CREDITS :

   NOAA